Flag for U.S.A. Weather past 2 weeks in Chicago, Illinois, U.S.A.

Now
34 °F

Mostly cloudy.


Feels Like: 29 °F
Forecast: 33 / 40 °F
Wind: 6 mph from South

Location: Chicago Midway Airport

Current Time: Dec 20, 2014 at 10:48:26 PM

Latest Report: Dec 20, 2014 at 9:53 PM


Visibility: 10 mi

Pressure: 30.29 "Hg

Humidity: 76%

Dew point: 27 °F

Location of ChicagoLocation

Historic Weather in Chicago — Graph

°F

Chicago temperature yesterday

Maximum temperature yesterday: 34 °F (at 12:53 PM)
Minimum temperature yesterday: 29 °F (at 1:53 AM)
Average temperature yesterday: 32 °F

Past Weeks' High & Low Weather Summary

 TemperatureHumidityPressure
High53 °F (Dec 14, 11:53 AM)97% (Dec 14, 11:53 PM)30.68 "Hg (Dec 14, 11:53 PM)
Low25 °F (Dec 12, 2:53 AM)46% (Dec 7, 12:53 PM)29.65 "Hg (Dec 16, 3:53 AM)
Average36 °F78%30.24 "Hg
* Reported Dec 5 8:53 PM — Dec 20 8:53 PM, Chicago, Weather by CustomWeather, © 2014

Note: Actual official high and low records may vary slightly from our data, if they occured in-between our weather recording intervals... More about our weather records

Advertising

Chicago weather history for previous 24 hours

 ConditionsComfort  
Time TempWeatherWind HumidityBarometerVisibility
8:53 PM
Dec 20
34 °FOvercast.7 mph73%30.30 "Hg10 mi
7:53 PM34 °FOvercast.8 mph73%30.30 "Hg10 mi
6:53 PM34 °FOvercast.5 mph73%30.30 "Hg10 mi
5:53 PM34 °FLight snow. Mostly cloudy.6 mph73%30.30 "Hg10 mi
4:53 PM34 °FMostly cloudy.7 mph70%30.29 "Hg10 mi
3:53 PM34 °FMostly cloudy.5 mph70%30.28 "Hg10 mi
2:53 PM34 °FLight snow. Mostly cloudy.6 mph70%30.28 "Hg10 mi
1:53 PM34 °FLight snow. Mostly cloudy.9 mph70%30.28 "Hg10 mi
12:53 PM34 °FLight snow. More clouds than sun.8 mph73%30.29 "Hg9 mi
11:53 AM34 °FMostly cloudy.9 mph70%30.30 "Hg9 mi
10:53 AM33 °FLight snow. More clouds than sun.6 mph75%30.32 "Hg9 mi
9:53 AM33 °FOvercast.7 mph75%30.32 "Hg10 mi
8:53 AM32 °FOvercast.5 mph79%30.32 "Hg9 mi
7:53 AM32 °FMostly cloudy.5 mph79%30.32 "Hg9 mi
6:53 AM32 °FOvercast.3 mph75%30.31 "Hg9 mi
5:53 AM32 °FOvercast.6 mph75%30.31 "Hg9 mi
4:53 AM32 °FOvercast.3 mph75%30.31 "Hg10 mi
3:53 AM32 °FOvercast.5 mph75%30.31 "Hg9 mi
2:53 AM32 °FOvercast.6 mph75%30.31 "Hg9 mi
1:53 AM32 °FOvercast.6 mph75%30.31 "Hg8 mi
12:53 AM32 °FOvercast.6 mph75%30.30 "Hg8 mi
11:53 PM
Dec 19
33 °FOvercast.6 mph72%30.30 "Hg10 mi
10:53 PM33 °FOvercast.5 mph72%30.30 "Hg9 mi
Weather by CustomWeather, © 2014

See weather overviewHow to use our weather pages